Date String (YYYY-MM-DD hh:mm:ss) UTC,Instrument flags,absolute air pressure of the measurement (hPa),sample flow rate (lpm),inlet stack bypass flow (lpm),air temperature of the measurement (°C),ambient temperature measured by the external sensor (°C),aerosol sample conditioner tube jacket temperature (°C),OPC LED temperature (°C),internal box temperature (°C),relative humidity of the measurement (%),span deviation,mass concentration of particles derived from Lorenz-Mie calculation of OPC scattering (μg/m³),mass concentration of particles derived from Lorenz-Mie calculation of OPC scattering (μg/m³),mass concentration of particles derived from Lorenz-Mie calculation of OPC scattering (μg/m³)
DateTimeUTC,F1_M11,P_M11,Q1_M11,Q2_M11,T1_M11,T2_M11,T3_M11,T4_M11,T5_M11,U1_M11,ZSPAN_M11,X0_M11,X2_M11,X1_M11
2023-10-27 18:00:00,SystemResetWarning,0833.3,5.01,000.00,020.9,019.6,000.0,029.3,022.5,19.9,0002.3,0010.66,0008.18,0007.83
2023-10-27 18:01:00,SystemResetWarning,0833.2,5.00,000.00,020.9,019.6,000.0,029.3,022.4,19.9,0002.5,0010.88,0008.20,0007.83
2023-10-27 18:02:00,SystemResetWarning,0833.2,5.00,000.00,020.8,019.5,000.0,029.3,022.4,19.9,0003.1,0010.79,0008.20,0007.82
2023-10-27 18:03:00,SystemResetWarning,0833.2,5.00,000.00,020.8,019.5,000.0,029.3,022.4,20.0,0003.3,0010.64,0008.18,0007.81
2023-10-27 18:04:00,SystemResetWarning,0833.2,5.00,000.00,020.8,019.5,000.0,029.3,022.4,20.0,0003.3,0010.62,0008.18,0007.80
2023-10-27 18:05:00,SystemResetWarning,0833.2,5.00,000.00,020.8,019.5,000.0,029.3,022.4,20.0,0003.1,0010.82,0008.20,0007.80
2023-10-27 18:06:00,SystemResetWarning,0833.2,5.00,000.00,020.8,019.5,000.0,029.3,022.4,19.9,0003.0,0011.06,0008.21,0007.80
2023-10-27 18:07:00,SystemResetWarning,0833.2,5.00,000.00,020.8,019.6,000.0,029.3,022.4,19.7,0002.5,0011.06,0008.21,0007.81
2023-10-27 18:08:00,SystemResetWarning,0833.2,5.00,000.00,020.8,019.6,000.0,029.3,022.4,19.5,0002.1,0011.12,0008.22,0007.80
2023-10-27 18:09:00,SystemResetWarning,0833.2,5.00,000.00,020.9,019.7,000.0,029.3,022.5,19.2,0002.0,0011.12,0008.24,0007.81
2023-10-27 18:10:00,SystemResetWarning,0833.1,5.00,000.00,020.9,019.7,000.0,029.3,022.5,18.9,0001.8,0010.99,0008.24,0007.82
2023-10-27 18:11:00,SystemResetWarning,0833.2,5.00,000.00,020.9,019.7,000.0,029.3,022.5,18.7,0000.9,0010.87,0008.28,0007.82
2023-10-27 18:12:00,SystemResetWarning,0833.2,5.00,000.00,020.9,019.7,000.0,029.3,022.5,18.5,0000.1,0010.76,0008.28,0007.82
2023-10-27 18:13:00,SystemResetWarning,0833.2,5.00,000.00,020.9,019.7,000.0,029.3,022.5,18.5,0000.0,0010.81,0008.29,0007.82
2023-10-27 18:14:00,SystemResetWarning,0833.1,5.00,000.00,020.9,019.7,000.0,029.3,022.5,18.5,-000.0,0010.91,0008.31,0007.82
2023-10-27 18:15:00,SystemResetWarning,0833.4,5.00,000.00,020.9,019.7,000.0,029.3,022.5,18.6,-001.0,0010.96,0008.32,0007.82
2023-10-27 18:16:00,SystemResetWarning,0833.2,5.00,000.00,020.9,019.7,000.0,029.3,022.5,18.5,-001.3,0010.97,0008.32,0007.80
2023-10-27 18:17:00,SystemResetWarning,0833.2,5.00,000.00,020.9,019.7,000.0,029.3,022.5,18.7,-001.7,0010.56,0008.26,0007.79
2023-10-27 18:18:00,SystemResetWarning,0833.1,5.00,000.00,020.9,019.8,000.0,029.3,022.5,19.0,-001.9,0010.43,0008.23,0007.77
2023-10-27 18:19:00,SystemResetWarning,0833.1,5.00,000.00,020.9,019.8,000.0,029.3,022.5,19.3,-001.8,0010.44,0008.24,0007.77
2023-10-27 18:20:00,SystemResetWarning,0833.1,5.00,000.00,020.9,019.8,000.0,029.3,022.5,19.7,-001.6,0010.42,0008.24,0007.76
2023-10-27 18:21:00,SystemResetWarning,0833.1,5.00,000.00,020.9,019.8,000.0,029.3,022.5,19.9,-001.5,0010.39,0008.21,0007.74
2023-10-27 18:22:00,SystemResetWarning,0833.2,5.00,000.00,020.9,019.8,000.0,029.3,022.6,20.1,-001.0,0010.39,0008.17,0007.72
2023-10-27 18:23:00,SystemResetWarning,0833.0,5.00,000.00,020.9,019.8,000.0,029.3,022.6,20.3,-000.6,0010.48,0008.16,0007.71
2023-10-27 18:24:00,SystemResetWarning,0833.0,5.00,000.00,020.9,019.8,000.0,029.3,022.6,20.5,-000.6,0010.51,0008.17,0007.70
2023-10-27 18:25:00,SystemResetWarning,0833.2,5.00,000.00,020.9,019.8,000.0,029.3,022.5,20.6,0000.1,0010.63,0008.13,0007.70
2023-10-27 18:26:00,SystemResetWarning,0833.1,5.00,000.00,021.0,019.8,000.0,029.3,022.6,20.8,0000.6,0010.58,0008.11,0007.69
2023-10-27 18:27:00,SystemResetWarning,0832.9,5.00,000.00,021.0,019.8,000.0,029.3,022.6,20.9,0000.9,0010.57,0008.13,0007.70
2023-10-27 18:28:00,SystemResetWarning,0833.0,5.00,000.00,021.0,019.8,000.0,029.3,022.6,21.1,0001.0,0012.44,0008.31,0007.71
2023-10-27 18:29:00,SystemResetWarning,0833.0,5.00,000.00,021.0,019.8,000.0,029.3,022.6,21.2,0001.2,0029.93,0010.41,0007.81
2023-10-27 18:30:00,SystemResetWarning,0833.1,5.00,000.00,020.9,019.8,000.0,029.3,022.6,21.3,0001.3,0040.78,0011.85,0007.87
2023-10-27 18:31:00,SystemResetWarning,0833.4,4.99,000.00,020.9,019.7,000.0,029.3,022.6,21.4,0001.9,0043.00,0012.36,0007.89
2023-10-27 18:32:00,SystemResetWarning,0833.0,5.00,000.00,020.9,019.8,000.0,029.3,022.6,21.4,0001.6,0044.31,0012.65,0007.92
2023-10-27 18:33:00,SystemResetWarning,0833.1,5.00,000.00,020.9,019.8,000.0,029.3,022.6,21.4,0001.9,0045.31,0012.83,0007.93
2023-10-27 18:34:00,SystemResetWarning,0833.0,5.00,000.00,020.9,019.7,000.0,029.3,022.5,21.4,0001.8,0046.07,0012.94,0007.94
2023-10-27 18:35:00,SystemResetWarning,0833.1,5.00,000.00,020.9,019.7,000.0,029.3,022.5,21.3,0002.0,0046.63,0013.01,0007.93
2023-10-27 18:36:00,SystemResetWarning,0833.3,5.00,000.00,020.9,019.7,000.0,029.3,022.6,21.2,0001.5,0046.82,0013.06,0007.93
2023-10-27 18:37:00,SystemResetWarning,0833.0,5.00,000.00,020.9,019.7,000.0,029.3,022.6,21.2,0001.4,0047.37,0013.14,0007.93
2023-10-27 18:38:00,SystemResetWarning,0832.9,5.00,000.00,020.9,019.7,000.0,029.3,022.6,21.2,0001.8,0047.63,0013.19,0007.91
2023-10-27 18:39:00,SystemResetWarning,0832.8,5.00,000.00,020.9,019.7,000.0,029.3,022.6,21.3,0002.5,0047.74,0013.25,0007.90
2023-10-27 18:40:00,SystemResetWarning,0832.8,4.99,000.00,020.9,019.7,000.0,029.3,022.6,21.3,0002.4,0039.76,0012.25,0007.86
2023-10-27 18:41:00,SystemResetWarning,0832.8,4.99,000.00,020.9,019.8,000.0,029.3,022.6,21.3,0003.1,0049.67,0013.44,0008.09
2023-10-27 18:42:00,SystemResetWarning,0832.7,5.00,000.00,021.0,019.8,000.0,029.4,022.6,21.3,0002.8,0058.15,0014.60,0008.27
2023-10-27 18:43:00,SystemResetWarning,0832.8,5.01,000.00,021.0,019.8,000.0,029.4,022.6,21.3,0002.6,0058.02,0014.70,0008.31
2023-10-27 18:44:00,SystemResetWarning,0832.8,5.01,000.00,021.0,019.8,000.0,029.4,022.7,21.3,0002.4,0057.27,0014.64,0008.35
2023-10-27 18:45:00,SystemResetWarning,0832.8,5.01,000.00,021.0,019.9,000.0,029.4,022.7,21.3,0001.8,0056.26,0014.58,0008.39
2023-10-27 18:46:00,SystemResetWarning,0832.8,4.99,000.00,021.0,019.9,000.0,029.4,022.7,21.2,0001.5,0055.71,0014.52,0008.43
2023-10-27 18:47:00,SystemResetWarning,0832.7,4.99,000.00,021.0,019.9,000.0,029.4,022.7,21.2,0001.5,0055.70,0014.51,0008.48
2023-10-27 18:48:00,SystemResetWarning,0832.7,5.00,000.00,021.1,020.0,000.0,029.4,022.7,21.2,0001.5,0055.59,0014.50,0008.51
2023-10-27 18:49:00,SystemResetWarning,0832.7,5.00,000.00,021.0,019.9,000.0,029.4,022.7,21.3,0001.2,0056.31,0014.51,0008.54
2023-10-27 18:50:00,SystemResetWarning,0832.7,5.01,000.00,021.0,019.8,000.0,029.4,022.7,20.3,0000.6,0056.88,0014.49,0008.54
2023-10-27 18:51:00,SystemResetWarning,0832.7,5.00,000.00,021.0,019.8,000.0,029.4,022.7,17.4,0001.1,0057.02,0014.53,0008.57
2023-10-27 18:52:00,SystemResetWarning,0832.7,4.99,000.00,021.0,019.9,000.0,029.4,022.7,16.3,0000.6,0030.97,0011.46,0008.31
2023-10-27 18:53:00,SystemResetWarning,0832.7,4.99,000.00,021.0,019.9,000.0,029.4,022.7,15.9,0000.5,0018.82,0009.50,0008.12
2023-10-27 18:54:00,SystemResetWarning,0832.6,5.00,000.00,021.0,019.9,000.0,029.4,022.7,16.0,0001.0,0017.71,0009.02,0008.08
2023-10-27 18:55:00,SystemResetWarning,0832.6,5.01,000.00,021.1,019.9,000.0,029.4,022.7,16.3,0001.3,0017.56,0008.92,0008.07
2023-10-27 18:56:00,SystemResetWarning,0832.7,5.01,000.00,021.1,020.0,000.0,029.5,022.7,16.2,0001.0,0018.52,0009.03,0008.07
2023-10-27 18:57:00,SystemResetWarning,0832.7,5.01,000.00,021.1,019.9,000.0,029.5,022.7,15.8,0000.9,0019.71,0009.14,0008.08
2023-10-27 18:58:00,SystemResetWarning,0832.7,5.00,000.00,021.0,019.9,000.0,029.5,022.7,15.6,0001.0,0019.50,0009.18,0008.07
2023-10-27 18:59:00,SystemResetWarning,0832.7,5.00,000.00,021.0,019.8,000.0,029.5,022.6,15.7,0000.6,0019.85,0009.29,0008.08
